| time (UTC) | temp F | wind direction | speed knots | gust knots | rain 1hr in | rain 24hr in | rain mn in | humidity % | barometer mb |
| 20260903090502 | 75 | 320 | 6.1 | 0.0 | 0.00 | 0.00 | 0.00 | 50 | 1019.0 |
| 20260903083502 | 73 | 1.7 | 0.0 | 0.00 | 0.00 | 0.00 | 53 | 1020.0 | |
| 20260903080503 | 73 | 360 | 4.3 | 0.0 | 0.00 | 0.00 | 0.00 | 50 | 1020.0 |
| 20260903073502 | 73 | 5.2 | 0.0 | 0.00 | 0.00 | 0.00 | 53 | 1020.0 | |
| 20260903070502 | 70 | 310 | 6.1 | 0.0 | 0.00 | 0.00 | 0.00 | 64 | 1020.0 |
| 20260903063503 | 68 | 290 | 4.3 | 0.0 | 0.00 | 0.00 | 0.00 | 69 | 1019.0 |
| 20260903060502 | 64 | 250 | 2.6 | 0.0 | 0.00 | 0.00 | 0.00 | 78 | 1020.0 |
| 20260903053502 | 63 | 1.7 | 0.0 | 0.00 | 0.00 | 0.00 | 83 | 1020.0 | |
| 20260903050503 | 63 | 270 | 2.6 | 0.0 | 0.00 | 0.00 | 0.00 | 83 | 1020.0 |
| 20260903043502 | 64 | 200 | 2.6 | 0.0 | 0.00 | 0.00 | 0.00 | 73 | 1019.0 |
| 20260903040502 | 61 | 310 | 7.0 | 0.0 | 0.00 | 0.00 | 0.00 | 83 | 1019.0 |
| 20260903033502 | 63 | 320 | 7.8 | 0.0 | 0.00 | 0.00 | 0.00 | 77 | 1019.0 |
| 20260903030502 | 63 | 250 | 4.3 | 0.0 | 0.00 | 0.00 | 0.00 | 77 | 1019.0 |
| 20260903023502 | 64 | 340 | 7.0 | 0.0 | 0.00 | 0.00 | 0.00 | 73 | 1019.0 |
| 20260903020501 | 64 | 1.7 | 0.0 | 0.00 | 0.00 | 0.00 | 73 | 1019.0 | |
| 20260903013503 | 66 | 20 | 7.0 | 0.0 | 0.00 | 0.00 | 0.00 | 64 | 1019.0 |
| 20260903010502 | 66 | 20 | 7.0 | 0.0 | 0.00 | 0.00 | 0.00 | 64 | 1019.0 |
| 20260903003502 | 66 | 340 | 8.7 | 0.0 | 0.00 | 0.00 | 0.00 | 68 | 1019.0 |
| 20260903000502 | 64 | 270 | 2.6 | 0.0 | 0.00 | 0.00 | 0.00 | 78 | 1019.0 |
| 20260902233501 | 64 | 260 | 4.3 | 0.0 | 0.00 | 0.00 | 0.00 | 78 | 1019.0 |
| 20260902230501 | 64 | 310 | 5.2 | 0.0 | 0.00 | 0.00 | 0.00 | 73 | 1019.0 |
| 20260902223502 | 66 | 290 | 2.6 | 0.0 | 0.00 | 0.00 | 0.00 | 73 | 1019.0 |
| 20260902220502 | 66 | 300 | 2.6 | 0.0 | 0.00 | 0.00 | 0.00 | 73 | 1019.0 |
| 20260902213502 | 68 | 330 | 2.6 | 0.0 | 0.00 | 0.00 | 0.00 | 64 | 1019.0 |
| 20260902210502 | 66 | 270 | 2.6 | 0.0 | 0.00 | 0.00 | 0.00 | 78 | 1019.0 |
| 20260902203502 | 70 | 320 | 2.6 | 0.0 | 0.00 | 0.00 | 0.00 | 64 | 1019.0 |
| 20260902200502 | 70 | 320 | 2.6 | 0.0 | 0.00 | 0.00 | 0.00 | 64 | 1019.0 |
| 20260902193502 | 70 | 290 | 2.6 | 0.0 | 0.00 | 0.00 | 0.00 | 69 | 1019.0 |
| 20260902190502 | 70 | 350 | 2.6 | 0.0 | 0.00 | 0.00 | 0.00 | 69 | 1019.0 |
| 20260902183502 | 70 | 280 | 1.7 | 0.0 | 0.00 | 0.00 | 0.00 | 69 | 1019.0 |
| 20260902180502 | 72 | 1.7 | 0.0 | 0.00 | 0.00 | 0.00 | 61 | 1019.0 | |
| 20260902173502 | 73 | 310 | 2.6 | 0.0 | 0.00 | 0.00 | 0.00 | 57 | 1018.0 |
| 20260902170502 | 75 | 310 | 2.6 | 0.0 | 0.00 | 0.00 | 0.00 | 54 | 1018.0 |
| 20260902163502 | 75 | 310 | 4.3 | 0.0 | 0.00 | 0.00 | 0.00 | 57 | 1018.0 |
| 20260902160503 | 75 | 310 | 4.3 | 0.0 | 0.00 | 0.00 | 0.00 | 57 | 1018.0 |
| 20260902153503 | 77 | 320 | 4.3 | 0.0 | 0.00 | 0.00 | 0.00 | 51 | 1018.0 |
| 20260902150502 | 79 | 2.6 | 0.0 | 0.00 | 0.00 | 0.00 | 48 | 1018.0 | |
| 20260902143502 | 79 | 2.6 | 0.0 | 0.00 | 0.00 | 0.00 | 48 | 1018.0 | |
| 20260902140502 | 77 | 1.7 | 0.0 | 0.00 | 0.00 | 0.00 | 51 | 1019.0 | |
| 20260902133501 | 77 | 290 | 4.3 | 0.0 | 0.00 | 0.00 | 0.00 | 51 | 1019.0 |
| 20260902130502 | 79 | 2.6 | 0.0 | 0.00 | 0.00 | 0.00 | 51 | 1019.0 | |
| 20260902123502 | 79 | 310 | 7.0 | 0.0 | 0.00 | 0.00 | 0.00 | 51 | 1019.0 |
| 20260902120503 | 77 | 2.6 | 0.0 | 0.00 | 0.00 | 0.00 | 51 | 1019.0 | |
| 20260902113502 | 77 | 60 | 2.6 | 0.0 | 0.00 | 0.00 | 0.00 | ||
| 20260902110502 | 75 | 1.7 | 0.0 | 0.00 | 0.00 | 0.00 | 54 | 1020.0 | |
| 20260902103501 | 75 | 2.6 | 0.0 | 0.00 | 0.00 | 0.00 | 54 | 1020.0 | |
| 20260902100503 | 77 | 2.6 | 0.0 | 0.00 | 0.00 | 0.00 | 54 | 1020.0 | |
| 20260902093502 | 75 | 250 | 5.2 | 0.0 | 0.00 | 0.00 | 0.00 | 54 | 1021.0 |